Weather in Yiwu

China     22°00′13″N   101°27′44″E
temp.,
°C
wind,
m/s
gust,
m/s
humid.,
%
clouds,
%
prec.,
mm/h
press.,
hPa
HPBL,
m
2 december, thu
thu223:00+12e118775 0.0 101919
02:00+11ene11946 0.0 101921
05:00+10ene1199100 0.0 101928
08:00+9e119876 0.0 102142
11:00+18e126172 0.0 1021857
14:00+22ese114538 0.0 10171660
17:00+21ese115037 0.0 10141467
20:00+15e117613 0.0 101826
3 december, fri
fri323:00+12e118611 0.0 102018
02:00+11e11902 0.0 102018
05:00+10ene11946 0.0 102023
08:00+10ene119576 0.0 102237
11:00+19ese125443 0.0 1021950
14:00+22se114568 0.0 10171797
17:00+20ene125785 0.0 1016485
20:00+13ene11815 0.0 101913
4 december, sat
sat423:00+12e11869 0.0 102021
02:00+11e119040 0.0 102123
05:00+10e119484 0.0 102027
08:00+11e128799 0.0 102158
11:00+17ese125444 0.0 1021658
14:00+21e11428 0.0 10171552
17:00+21e115185 0.0 1015702
20:00+14e117379 0.0 101916
5 december, sun
sun523:00+12e117973 0.0 102020
02:00+11e118010 0.0 102014
05:00+10ene1186100 0.0 102028
08:00+9ene119013 0.0 102138
11:00+18e125795 0.0 1021740
14:00+20e115079 0.0 10181192
17:00+18sse116366 0.0 101774
20:00+14ese117893 0.0 101914
6 december, mon
mon623:00+15e117179 0.0 101921
02:00+13e117778 0.0 101917
05:00+12ene118611 0.0 101818
08:00+10ene11956 0.0 102031
11:00+19ese11555 0.0 1020936
14:00+22se114444 0.0 10161687
17:00+20e1158100 0.0 1014123
20:00+16e116983 0.0 101638